,,Stat6,,Stat2,,Stat8,,Stat9,,Stat10,,Wind1,,Wind1,
time,status,PA1M_AVG,status,PR1M_SUM,status,RH1M_AVG,status,SR1M_AVG,status,TA1M_AVG,status,W1dAve1m,status,W1sAve1m,
2003-10-07, 00:00:01,VALID,919.301,VALID,0,VALID,100,VALID,-0.0339617,VALID,19.7094,VALID,123,VALID,0.398438,
2003-10-07, 00:01:00,VALID,919.284,VALID,0,VALID,100,VALID,-0.0849042,VALID,19.6893,VALID,137,VALID,0.725109,
2003-10-07, 00:02:00,VALID,919.273,VALID,0,VALID,100,VALID,-0.0509425,VALID,19.6997,VALID,146,VALID,0.646391,
2003-10-07, 00:03:00,VALID,919.243,VALID,0,VALID,100,VALID,-0.0509425,VALID,19.6895,VALID,141,VALID,0.675327,
2003-10-07, 00:04:00,VALID,919.235,VALID,0,VALID,100,VALID,-0.0339617,VALID,19.6866,VALID,133,VALID,1.12081,
2003-10-07, 00:05:00,VALID,919.211,VALID,0,VALID,100,VALID,-0.0849042,VALID,19.6702,VALID,119,VALID,0.798109,
2003-10-07, 00:06:00,VALID,919.193,VALID,0,VALID,100,VALID,-0.0849042,VALID,19.6637,VALID,132,VALID,0.940407,
2003-10-07, 00:07:00,VALID,919.172,VALID,0.2,VALID,100,VALID,-0.0169808,VALID,19.6602,VALID,143,VALID,0.885231,
2003-10-07, 00:08:00,VALID,919.154,VALID,0,VALID,100,VALID,-0.0679233,VALID,19.6572,VALID,125,VALID,0.775799,
2003-10-07, 00:09:00,VALID,919.152,VALID,0,VALID,100,VALID,-0.0849042,VALID,19.6637,VALID,123,VALID,0.947409,
2003-10-07, 00:10:00,VALID,919.115,VALID,0,VALID,100,VALID,-0.0849042,VALID,19.6644,VALID,130,VALID,0.536111,
2003-10-07, 00:11:00,VALID,919.123,VALID,0,VALID,100,VALID,-0.0849042,VALID,19.6644,VALID,104,VALID,0.339208,
2003-10-07, 00:12:00,VALID,919.114,VALID,0,VALID,100,VALID,-0.0509425,VALID,19.6769,VALID,94,VALID,0.00372024,
2003-10-07, 00:13:00,VALID,919.095,VALID,0,VALID,100,VALID,-0.0849042,VALID,19.6709,VALID,124,VALID,0.595152,
2003-10-07, 00:14:00,VALID,919.095,VALID,0,VALID,100,VALID,-0.0509425,VALID,19.6543,VALID,109,VALID,0.342748,
2003-10-07, 00:15:00,VALID,919.077,VALID,0,VALID,100,VALID,-0.0339617,VALID,19.6443,VALID,120,VALID,0.515625,
2003-10-07, 00:16:00,VALID,919.075,VALID,0.2,VALID,100,VALID,-0.0849042,VALID,19.6448,VALID,118,VALID,0.243712,
2003-10-07, 00:17:00,VALID,919.066,VALID,0,VALID,100,VALID,-0.0679233,VALID,19.6515,VALID,109,VALID,0.21596,
2003-10-07, 00:18:00,VALID,919.057,VALID,0,VALID,100,VALID,-0.0509425,VALID,19.6476,VALID,48,VALID,0.29516,
2003-10-07, 00:19:00,VALID,919.048,VALID,0,VALID,100,VALID,0,VALID,19.6687,VALID,33,VALID,0.390807,
2003-10-07, 00:20:00,VALID,919.037,VALID,0,VALID,100,VALID,0.0339617,VALID,19.6853,VALID,33,VALID,0.318266,
2003-10-07, 00:21:00,VALID,919.024,VALID,0,VALID,100,VALID,0.0339617,VALID,19.6881,VALID,23,VALID,0.446221,
2003-10-07, 00:22:00,VALID,919.013,VALID,0,VALID,100,VALID,0.0339617,VALID,19.6759,VALID,21,VALID,0.212003,
2003-10-07, 00:23:00,VALID,918.997,VALID,0,VALID,100,VALID,0.0679233,VALID,19.6625,VALID,21,VALID,0.320135,
2003-10-07, 00:24:00,VALID,918.992,VALID,0,VALID,100,VALID,0.0679233,VALID,19.6858,VALID,21,VALID,0.339367,
2003-10-07, 00:25:00,VALID,918.977,VALID,0,VALID,100,VALID,0,VALID,19.6525,VALID,21,VALID,0.311967,
2003-10-07, 00:26:00,VALID,918.958,VALID,0,VALID,100,VALID,0.0169808,VALID,19.6374,VALID,49,VALID,0.505526,
2003-10-07, 00:27:00,VALID,918.939,VALID,0,VALID,100,VALID,0,VALID,19.6173,VALID,54,VALID,0.416061,
2003-10-07, 00:28:00,VALID,918.933,VALID,0,VALID,100,VALID,0.0169808,VALID,19.6076,VALID,54,VALID,0.387908,
2003-10-07, 00:29:00,VALID,918.913,VALID,0,VALID,100,VALID,0.0169808,VALID,19.6051,VALID,56,VALID,0.466654,
2003-10-07, 00:30:00,VALID,918.902,VALID,0.2,VALID,100,VALID,0.0339617,VALID,19.6051,VALID,57,VALID,0.346608,
2003-10-07, 00:31:00,VALID,918.888,VALID,0,VALID,100,VALID,0,VALID,19.5815,VALID,69,VALID,0.472656,
2003-10-07, 00:32:00,VALID,918.866,VALID,0,VALID,100,VALID,0.0509425,VALID,19.5755,VALID,83,VALID,0.388317,
2003-10-07, 00:33:00,VALID,918.875,VALID,0,VALID,100,VALID,-0.0169808,VALID,19.573,VALID,104,VALID,0.549055,
2003-10-07, 00:34:00,VALID,918.847,VALID,0,VALID,100,VALID,-0.118866,VALID,19.5549,VALID,78,VALID,0.342634,
2003-10-07, 00:35:00,VALID,918.836,VALID,0,VALID,100,VALID,-0.101885,VALID,19.5685,VALID,73,VALID,0.290838,
2003-10-07, 00:36:00,VALID,918.832,VALID,0,VALID,100,VALID,-0.101885,VALID,19.571,VALID,52,VALID,0.243963,
2003-10-07, 00:37:00,VALID,918.81,VALID,0,VALID,100,VALID,-0.0849042,VALID,19.5941,VALID,68,VALID,0.407292,
2003-10-07, 00:38:00,VALID,918.803,VALID,0,VALID,100,VALID,-0.101885,VALID,19.5681,VALID,81,VALID,0.288491,
2003-10-07, 00:39:00,VALID,918.777,VALID,0,VALID,100,VALID,-0.101885,VALID,19.5685,VALID,81,VALID,0.188262,
2003-10-07, 00:40:00,VALID,918.771,VALID,0,VALID,100,VALID,-0.135847,VALID,19.5715,VALID,81,VALID,0.156613,
2003-10-07, 00:41:00,VALID,918.757,VALID,0,VALID,100,VALID,-0.118866,VALID,19.5745,VALID,80,VALID,0.223958,
2003-10-07, 00:42:00,VALID,918.75,VALID,0,VALID,100,VALID,-0.118866,VALID,19.572,VALID,83,VALID,0.695513,
2003-10-07, 00:43:00,VALID,918.725,VALID,0,VALID,100,VALID,-0.118866,VALID,19.572,VALID,84,VALID,0.447731,
2003-10-07, 00:44:00,VALID,918.702,VALID,0,VALID,100,VALID,-0.118866,VALID,19.5718,VALID,71,VALID,0.466463,
2003-10-07, 00:45:00,VALID,918.688,VALID,0,VALID,100,VALID,-0.118866,VALID,19.5591,VALID,72,VALID,0.518999,
2003-10-07, 00:46:00,VALID,918.676,VALID,0,VALID,100,VALID,-0.118866,VALID,19.5529,VALID,74,VALID,0.638317,
2003-10-07, 00:47:00,VALID,918.652,VALID,0,VALID,100,VALID,-0.0849042,VALID,19.5526,VALID,89,VALID,0.52567,
2003-10-07, 00:48:00,VALID,918.635,VALID,0,VALID,100,VALID,-0.0509425,VALID,19.5482,VALID,94,VALID,0.112464,
2003-10-07, 00:49:00,VALID,918.616,VALID,0,VALID,100,VALID,0.101885,VALID,19.5365,VALID,94,VALID,0.511186,
2003-10-07, 00:50:00,VALID,918.591,VALID,0,VALID,100,VALID,0.0849042,VALID,19.5599,VALID,94,VALID,0.161754,
2003-10-07, 00:51:00,VALID,918.593,VALID,0,VALID,100,VALID,0.101885,VALID,19.5462,VALID,94,VALID,0.0970204,
2003-10-07, 00:52:00,VALID,918.564,VALID,0.2,VALID,100,VALID,0.0679233,VALID,19.5653,VALID,106,VALID,0.424665,
2003-10-07, 00:53:00,VALID,918.55,VALID,0,VALID,100,VALID,0.101885,VALID,19.5492,VALID,127,VALID,0.784108,
2003-10-07, 00:54:00,VALID,918.545,VALID,0,VALID,100,VALID,0.0849042,VALID,19.5527,VALID,125,VALID,0.554142,
2003-10-07, 00:55:00,VALID,918.539,VALID,0,VALID,100,VALID,0.101885,VALID,19.5395,VALID,100,VALID,0.551847,
2003-10-07, 00:56:00,VALID,918.537,VALID,0,VALID,100,VALID,0.101885,VALID,19.5393,VALID,103,VALID,0.411519,
2003-10-07, 00:57:00,VALID,918.531,VALID,0,VALID,100,VALID,0.101885,VALID,19.5368,VALID,103,VALID,0.556286,
2003-10-07, 00:58:00,VALID,918.511,VALID,0,VALID,100,VALID,0.0849042,VALID,19.5398,VALID,94,VALID,0.388542,
2003-10-07, 00:59:00,VALID,918.495,VALID,0,VALID,100,VALID,0.0849042,VALID,19.537,VALID,92,VALID,0.197917,
2003-10-07, 01:00:00,VALID,918.479,VALID,0,VALID,100,VALID,0.101885,VALID,19.5402,VALID,92,VALID,0.160342,
2003-10-07, 01:01:00,VALID,918.482,VALID,0,VALID,100,VALID,0.101885,VALID,19.534,VALID,92,VALID,0.159766,
2003-10-07, 01:02:00,VALID,918.457,VALID,0,VALID,100,VALID,0.101885,VALID,19.5209,VALID,92,VALID,0.334263,
2003-10-07, 01:03:00,VALID,918.449,VALID,0,VALID,100,VALID,0.0679233,VALID,19.505,VALID,92,VALID,0.32848,
2003-10-07, 01:04:00,VALID,918.452,VALID,0,VALID,100,VALID,0,VALID,19.5087,VALID,87,VALID,0.289453,
2003-10-07, 01:05:00,VALID,918.444,VALID,0,VALID,100,VALID,0,VALID,19.5149,VALID,83,VALID,0.171113,
2003-10-07, 01:06:00,VALID,918.458,VALID,0,VALID,100,VALID,-0.0169808,VALID,19.5415,VALID,74,VALID,0.231771,
2003-10-07, 01:07:00,VALID,918.453,VALID,0,VALID,100,VALID,0,VALID,19.5546,VALID,42,VALID,0.438953,
2003-10-07, 01:08:00,VALID,918.454,VALID,0,VALID,100,VALID,-0.0169808,VALID,19.5676,VALID,32,VALID,0.467147,
2003-10-07, 01:09:00,VALID,918.444,VALID,0,VALID,100,VALID,-0.0509425,VALID,19.5512,VALID,31,VALID,0.23383,
2003-10-07, 01:10:00,VALID,918.427,VALID,0,VALID,100,VALID,-0.0169808,VALID,19.538,VALID,31,VALID,0.179142,
2003-10-07, 01:11:00,VALID,918.403,VALID,0,VALID,100,VALID,-0.0169808,VALID,19.5313,VALID,31,VALID,0,
2003-10-07, 01:12:00,VALID,918.374,VALID,0,VALID,100,VALID,-0.0169808,VALID,19.5154,VALID,31,VALID,0,
2003-10-07, 01:13:00,VALID,918.352,VALID,0,VALID,100,VALID,-0.0339617,VALID,19.5119,VALID,31,VALID,0,
2003-10-07, 01:14:00,VALID,918.343,VALID,0.2,VALID,100,VALID,-0.0169808,VALID,19.499,VALID,31,VALID,0,
2003-10-07, 01:15:00,VALID,918.325,VALID,0,VALID,100,VALID,-0.0169808,VALID,19.4933,VALID,31,VALID,0,
2003-10-07, 01:16:00,VALID,918.3,VALID,0,VALID,100,VALID,-0.0509425,VALID,19.4928,VALID,31,VALID,0,
2003-10-07, 01:17:00,VALID,918.278,VALID,0,VALID,100,VALID,0,VALID,19.4896,VALID,31,VALID,0,
2003-10-07, 01:18:00,VALID,918.262,VALID,0,VALID,100,VALID,0,VALID,19.493,VALID,31,VALID,0,
2003-10-07, 01:19:00,VALID,918.257,VALID,0,VALID,100,VALID,0,VALID,19.499,VALID,31,VALID,0,
2003-10-07, 01:20:00,VALID,918.259,VALID,0,VALID,100,VALID,-0.0339617,VALID,19.5194,VALID,31,VALID,0,
2003-10-07, 01:21:00,VALID,918.239,VALID,0,VALID,100,VALID,-0.0339617,VALID,19.5385,VALID,31,VALID,0,
2003-10-07, 01:22:00,VALID,918.227,VALID,0,VALID,100,VALID,-0.0339617,VALID,19.539,VALID,31,VALID,0,
2003-10-07, 01:23:00,VALID,918.212,VALID,0,VALID,100,VALID,-0.0169808,VALID,19.5191,VALID,31,VALID,0,
2003-10-07, 01:24:00,VALID,918.208,VALID,0,VALID,100,VALID,0,VALID,19.4801,VALID,31,VALID,0,
2003-10-07, 01:25:00,VALID,918.206,VALID,0,VALID,100,VALID,0,VALID,19.4702,VALID,31,VALID,0.0826671,
2003-10-07, 01:26:00,VALID,918.186,VALID,0,VALID,100,VALID,-0.0509425,VALID,19.4548,VALID,31,VALID,0.422619,
2003-10-07, 01:27:00,VALID,918.164,VALID,0,VALID,100,VALID,0,VALID,19.4414,VALID,31,VALID,0.429688,
2003-10-07, 01:28:00,VALID,918.145,VALID,0,VALID,100,VALID,-0.0339617,VALID,19.4183,VALID,33,VALID,0.34304,
2003-10-07, 01:29:00,VALID,918.144,VALID,0,VALID,100,VALID,-0.0339617,VALID,19.4153,VALID,34,VALID,0.159446,
2003-10-07, 01:30:00,VALID,918.111,VALID,0,VALID,100,VALID,-0.0169808,VALID,19.419,VALID,34,VALID,0,
2003-10-07, 01:31:00,VALID,918.104,VALID,0,VALID,100,VALID,-0.0509425,VALID,19.4155,VALID,34,VALID,0,
2003-10-07, 01:32:00,VALID,918.087,VALID,0,VALID,100,VALID,-0.0169808,VALID,19.4255,VALID,34,VALID,0,
2003-10-07, 01:33:00,VALID,918.061,VALID,0,VALID,100,VALID,0,VALID,19.4312,VALID,34,VALID,0,
2003-10-07, 01:34:00,VALID,918.045,VALID,0,VALID,100,VALID,0.0339617,VALID,19.4342,VALID,34,VALID,0,
2003-10-07, 01:35:00,VALID,918.026,VALID,0,VALID,100,VALID,0.0339617,VALID,19.4478,VALID,34,VALID,0,
2003-10-07, 01:36:00,VALID,918.009,VALID,0,VALID,100,VALID,0.0509425,VALID,19.4439,VALID,34,VALID,0.0518293,
2003-10-07, 01:37:00,VALID,918.005,VALID,0,VALID,100,VALID,0,VALID,19.4441,VALID,34,VALID,0.32706,
2003-10-07, 01:38:00,VALID,917.985,VALID,0,VALID,100,VALID,0.0169808,VALID,19.4217,VALID,39,VALID,0.363459,
2003-10-07, 01:39:00,VALID,917.975,VALID,0,VALID,100,VALID,0,VALID,19.3857,VALID,39,VALID,0.399709,
2003-10-07, 01:40:00,VALID,917.974,VALID,0,VALID,100,VALID,0.0509425,VALID,19.3693,VALID,39,VALID,0.413707,
2003-10-07, 01:41:00,VALID,917.951,VALID,0,VALID,100,VALID,0.0169808,VALID,19.3728,VALID,39,VALID,0.42537,
2003-10-07, 01:42:00,VALID,917.966,VALID,0,VALID,100,VALID,0,VALID,19.3696,VALID,39,VALID,0.450763,
2003-10-07, 01:43:00,VALID,917.945,VALID,0,VALID,100,VALID,0.0339617,VALID,19.3795,VALID,46,VALID,0.482515,
2003-10-07, 01:44:00,VALID,917.941,VALID,0,VALID,100,VALID,0.0509425,VALID,19.3698,VALID,52,VALID,0.426736,
2003-10-07, 01:45:00,VALID,917.933,VALID,0,VALID,100,VALID,0.0169808,VALID,19.3827,VALID,52,VALID,0.391992,
2003-10-07, 01:46:00,VALID,917.932,VALID,0,VALID,100,VALID,0.0169808,VALID,19.3758,VALID,52,VALID,0.197409,
2003-10-07, 01:47:00,VALID,917.905,VALID,0,VALID,100,VALID,0.0169808,VALID,19.376,VALID,52,VALID,0.0695858,
2003-10-07, 01:48:00,VALID,917.907,VALID,0,VALID,100,VALID,0.0169808,VALID,19.38,VALID,52,VALID,0,
2003-10-07, 01:49:00,VALID,917.889,VALID,0,VALID,100,VALID,-0.0509425,VALID,19.371,VALID,52,VALID,0,
2003-10-07, 01:50:00,VALID,917.87,VALID,0,VALID,100,VALID,-0.0509425,VALID,19.3815,VALID,52,VALID,0.0424107,
2003-10-07, 01:51:00,VALID,917.865,VALID,0,VALID,100,VALID,-0.0849042,VALID,19.3904,VALID,52,VALID,0.0133929,
2003-10-07, 01:52:00,VALID,917.845,VALID,0,VALID,100,VALID,-0.101885,VALID,19.4003,VALID,52,VALID,0,
2003-10-07, 01:53:00,VALID,917.823,VALID,0,VALID,100,VALID,-0.101885,VALID,19.4103,VALID,52,VALID,0,
2003-10-07, 01:54:00,VALID,917.799,VALID,0.2,VALID,100,VALID,-0.0849042,VALID,19.4202,VALID,52,VALID,0,
2003-10-07, 01:55:00,VALID,917.789,VALID,0,VALID,100,VALID,-0.101885,VALID,19.41,VALID,52,VALID,0,
2003-10-07, 01:56:00,VALID,917.781,VALID,0,VALID,100,VALID,-0.101885,VALID,19.4003,VALID,52,VALID,0,
2003-10-07, 01:57:00,VALID,917.755,VALID,0,VALID,100,VALID,-0.0679233,VALID,19.4138,VALID,52,VALID,0,
2003-10-07, 01:58:00,VALID,917.738,VALID,0,VALID,100,VALID,-0.0679233,VALID,19.4038,VALID,52,VALID,0,
2003-10-07, 01:59:00,VALID,917.731,VALID,0,VALID,100,VALID,-0.0679233,VALID,19.4073,VALID,52,VALID,0,
2003-10-07, 02:00:00,VALID,917.731,VALID,0,VALID,100,VALID,-0.0849042,VALID,19.3939,VALID,52,VALID,0,
2003-10-07, 02:01:00,VALID,917.707,VALID,0,VALID,100,VALID,-0.101885,VALID,19.3872,VALID,52,VALID,0,
2003-10-07, 02:02:00,VALID,917.705,VALID,0,VALID,100,VALID,-0.101885,VALID,19.3869,VALID,52,VALID,0,
2003-10-07, 02:03:00,VALID,917.694,VALID,0,VALID,100,VALID,-0.0509425,VALID,19.3902,VALID,52,VALID,0,
2003-10-07, 02:04:00,VALID,917.689,VALID,0,VALID,100,VALID,0,VALID,19.3902,VALID,52,VALID,0,
2003-10-07, 02:05:00,VALID,917.688,VALID,0,VALID,100,VALID,0,VALID,19.3957,VALID,52,VALID,0,
2003-10-07, 02:06:00,VALID,917.665,VALID,0,VALID,100,VALID,0,VALID,19.4053,VALID,52,VALID,0,
2003-10-07, 02:07:00,VALID,917.669,VALID,0,VALID,100,VALID,0,VALID,19.4322,VALID,52,VALID,0,
2003-10-07, 02:08:00,VALID,917.655,VALID,0,VALID,100,VALID,0,VALID,19.418,VALID,52,VALID,0,
2003-10-07, 02:09:00,VALID,917.647,VALID,0,VALID,100,VALID,0,VALID,19.4217,VALID,52,VALID,0,
2003-10-07, 02:10:00,VALID,917.643,VALID,0,VALID,100,VALID,0,VALID,19.425,VALID,52,VALID,0,
2003-10-07, 02:11:00,VALID,917.648,VALID,0,VALID,100,VALID,0,VALID,19.4086,VALID,52,VALID,0,
2003-10-07, 02:12:00,VALID,917.652,VALID,0,VALID,100,VALID,0.0169808,VALID,19.4086,VALID,52,VALID,0.00090843,
2003-10-07, 02:13:00,VALID,917.659,VALID,0,VALID,100,VALID,0.0339617,VALID,19.4028,VALID,52,VALID,0.107143,
2003-10-07, 02:14:00,VALID,917.643,VALID,0,VALID,100,VALID,0,VALID,19.3798,VALID,52,VALID,0.247275,
2003-10-07, 02:15:00,VALID,917.664,VALID,0,VALID,100,VALID,0,VALID,19.3571,VALID,52,VALID,0.294588,
2003-10-07, 02:16:00,VALID,917.663,VALID,0,VALID,100,VALID,0.0169808,VALID,19.344,VALID,52,VALID,0.26726,
2003-10-07, 02:17:00,VALID,917.66,VALID,0,VALID,100,VALID,0,VALID,19.3348,VALID,52,VALID,0.104367,
2003-10-07, 02:18:00,VALID,917.668,VALID,0,VALID,100,VALID,-0.0509425,VALID,19.3253,VALID,52,VALID,0.0316134,
2003-10-07, 02:19:00,VALID,917.678,VALID,0,VALID,100,VALID,-0.0679233,VALID,19.3233,VALID,52,VALID,0,
2003-10-07, 02:20:00,VALID,917.657,VALID,0,VALID,100,VALID,-0.0849042,VALID,19.3199,VALID,52,VALID,0,
2003-10-07, 02:21:00,VALID,917.641,VALID,0,VALID,100,VALID,-0.0849042,VALID,19.3196,VALID,52,VALID,0,
2003-10-07, 02:22:00,VALID,917.622,VALID,0,VALID,100,VALID,-0.0849042,VALID,19.3263,VALID,52,VALID,0,
2003-10-07, 02:23:00,VALID,917.607,VALID,0,VALID,100,VALID,-0.101885,VALID,19.3196,VALID,52,VALID,0,
2003-10-07, 02:24:00,VALID,917.585,VALID,0,VALID,100,VALID,-0.0509425,VALID,19.3005,VALID,52,VALID,0.0625,
2003-10-07, 02:25:00,VALID,917.558,VALID,0,VALID,100,VALID,-0.0679233,VALID,19.2806,VALID,30,VALID,0.324751,
2003-10-07, 02:26:00,VALID,917.543,VALID,0,VALID,100,VALID,-0.0679233,VALID,19.2945,VALID,13,VALID,0.146129,
2003-10-07, 02:27:00,VALID,917.521,VALID,0,VALID,100,VALID,-0.118866,VALID,19.3104,VALID,13,VALID,0,
2003-10-07, 02:28:00,VALID,917.504,VALID,0.2,VALID,100,VALID,-0.101885,VALID,19.3231,VALID,13,VALID,0,
2003-10-07, 02:29:00,VALID,917.481,VALID,0,VALID,100,VALID,-0.0849042,VALID,19.3454,VALID,13,VALID,0,
2003-10-07, 02:30:00,VALID,917.485,VALID,0,VALID,100,VALID,-0.101885,VALID,19.3718,VALID,13,VALID,0,
2003-10-07, 02:31:00,VALID,917.466,VALID,0,VALID,100,VALID,-0.101885,VALID,19.3718,VALID,13,VALID,0,
2003-10-07, 02:32:00,VALID,917.458,VALID,0,VALID,100,VALID,-0.101885,VALID,19.378,VALID,13,VALID,0,
2003-10-07, 02:33:00,VALID,917.445,VALID,0,VALID,100,VALID,-0.0509425,VALID,19.3777,VALID,13,VALID,0,
2003-10-07, 02:34:00,VALID,917.446,VALID,0,VALID,100,VALID,-0.0339617,VALID,19.3999,VALID,13,VALID,0.058012,
2003-10-07, 02:35:00,VALID,917.433,VALID,0,VALID,100,VALID,-0.0169808,VALID,19.4033,VALID,292,VALID,0.450945,
2003-10-07, 02:36:00,VALID,917.422,VALID,0,VALID,100,VALID,-0.0679233,VALID,19.3964,VALID,258,VALID,0.425781,
2003-10-07, 02:37:00,VALID,917.401,VALID,0,VALID,100,VALID,-0.0169808,VALID,19.4031,VALID,245,VALID,0.462028,
2003-10-07, 02:38:00,VALID,917.374,VALID,0,VALID,100,VALID,-0.0679233,VALID,19.4227,VALID,245,VALID,0.135298,
2003-10-07, 02:39:00,VALID,917.342,VALID,0,VALID,100,VALID,-0.0339617,VALID,19.4195,VALID,245,VALID,0,
2003-10-07, 02:40:00,VALID,917.335,VALID,0,VALID,100,VALID,-0.0509425,VALID,19.4386,VALID,245,VALID,0,
2003-10-07, 02:41:00,VALID,917.321,VALID,0,VALID,100,VALID,-0.0169808,VALID,19.4458,VALID,245,VALID,0,
2003-10-07, 02:42:00,VALID,917.313,VALID,0,VALID,100,VALID,-0.0679233,VALID,19.4324,VALID,245,VALID,0,
2003-10-07, 02:43:00,VALID,917.278,VALID,0,VALID,100,VALID,-0.0339617,VALID,19.4351,VALID,245,VALID,0,
2003-10-07, 02:44:00,VALID,917.286,VALID,0,VALID,100,VALID,-0.0169808,VALID,19.4548,VALID,245,VALID,0,
2003-10-07, 02:45:00,VALID,917.27,VALID,0,VALID,100,VALID,0,VALID,19.4607,VALID,245,VALID,0,
2003-10-07, 02:46:00,VALID,917.274,VALID,0,VALID,100,VALID,0,VALID,19.4481,VALID,245,VALID,0,
2003-10-07, 02:47:00,VALID,917.272,VALID,0.2,VALID,100,VALID,-0.0509425,VALID,19.4749,VALID,245,VALID,0,
2003-10-07, 02:48:00,VALID,917.276,VALID,0,VALID,100,VALID,-0.0509425,VALID,19.4679,VALID,245,VALID,0,
2003-10-07, 02:49:00,VALID,917.265,VALID,0,VALID,100,VALID,-0.0509425,VALID,19.4741,VALID,245,VALID,0,
2003-10-07, 02:50:00,VALID,917.258,VALID,0,VALID,100,VALID,-0.0339617,VALID,19.4645,VALID,245,VALID,0,
2003-10-07, 02:51:00,VALID,917.263,VALID,0,VALID,100,VALID,-0.0339617,VALID,19.4612,VALID,245,VALID,0,
2003-10-07, 02:52:00,VALID,917.251,VALID,0,VALID,100,VALID,-0.0339617,VALID,19.4838,VALID,245,VALID,0,
2003-10-07, 02:53:01,VALID,917.235,VALID,0,VALID,100,VALID,-0.0169808,VALID,19.4935,VALID,245,VALID,0,
2003-10-07, 02:54:01,VALID,917.21,VALID,0,VALID,100,VALID,-0.0169808,VALID,19.5097,VALID,245,VALID,0.00520833,
2003-10-07, 02:55:01,VALID,917.19,VALID,0,VALID,100,VALID,-0.0169808,VALID,19.4928,VALID,245,VALID,0,
2003-10-07, 02:56:00,VALID,917.178,VALID,0,VALID,100,VALID,-0.0169808,VALID,19.4808,VALID,245,VALID,0,
2003-10-07, 02:57:01,VALID,917.157,VALID,0,VALID,100,VALID,-0.0679233,VALID,19.4702,VALID,245,VALID,0,
2003-10-07, 02:58:00,VALID,917.153,VALID,0.2,VALID,100,VALID,0,VALID,19.4806,VALID,262,VALID,0.0357921,
2003-10-07, 02:59:00,VALID,917.152,VALID,0,VALID,100,VALID,-0.0169808,VALID,19.4836,VALID,9,VALID,0.573361,
2003-10-07, 03:00:01,VALID,917.146,VALID,0,VALID,100,VALID,-0.0169808,VALID,19.4806,VALID,18,VALID,0.55625,
2003-10-07, 03:01:00,VALID,917.147,VALID,0,VALID,100,VALID,-0.0339617,VALID,19.4833,VALID,17,VALID,0.597842,
2003-10-07, 03:02:00,VALID,917.145,VALID,0,VALID,100,VALID,-0.0679233,VALID,19.4868,VALID,16,VALID,0.638808,
2003-10-07, 03:03:00,VALID,917.151,VALID,0,VALID,100,VALID,-0.0509425,VALID,19.4635,VALID,15,VALID,0.71005,
2003-10-07, 03:04:01,VALID,917.153,VALID,0,VALID,100,VALID,-0.0169808,VALID,19.4838,VALID,15,VALID,0.411111,
2003-10-07, 03:05:01,VALID,917.149,VALID,0,VALID,100,VALID,0,VALID,19.4669,VALID,17,VALID,0.41282,
2003-10-07, 03:06:01,VALID,917.147,VALID,0,VALID,100,VALID,0,VALID,19.4602,VALID,18,VALID,0.261896,
2003-10-07, 03:07:01,VALID,917.128,VALID,0,VALID,100,VALID,-0.0339617,VALID,19.4647,VALID,18,VALID,0.0138081,
2003-10-07, 03:08:00,VALID,917.116,VALID,0,VALID,100,VALID,-0.0339617,VALID,19.4222,VALID,18,VALID,0,
2003-10-07, 03:09:01,VALID,917.119,VALID,0,VALID,100,VALID,0,VALID,19.4123,VALID,18,VALID,0,
2003-10-07, 03:10:00,VALID,917.099,VALID,0,VALID,100,VALID,0,VALID,19.3999,VALID,18,VALID,0,
2003-10-07, 03:11:00,VALID,917.083,VALID,0.2,VALID,100,VALID,-0.0509425,VALID,19.3835,VALID,18,VALID,0.0365767,
2003-10-07, 03:12:00,VALID,917.086,VALID,0,VALID,100,VALID,-0.0509425,VALID,19.3706,VALID,18,VALID,0.0524009,
2003-10-07, 03:13:00,VALID,917.065,VALID,0,VALID,100,VALID,-0.0509425,VALID,19.3743,VALID,18,VALID,0.203125,
2003-10-07, 03:14:01,VALID,917.075,VALID,0,VALID,100,VALID,0,VALID,19.3777,VALID,18,VALID,0.00190549,
2003-10-07, 03:15:00,VALID,917.067,VALID,0,VALID,100,VALID,-0.0339617,VALID,19.3835,VALID,18,VALID,0,
2003-10-07, 03:16:01,VALID,917.078,VALID,0,VALID,100,VALID,-0.0679233,VALID,19.377,VALID,18,VALID,0.00892857,
2003-10-07, 03:17:00,VALID,917.071,VALID,0,VALID,100,VALID,-0.0169808,VALID,19.4026,VALID,18,VALID,0.110518,
2003-10-07, 03:18:01,VALID,917.065,VALID,0,VALID,100,VALID,-0.0679233,VALID,19.4158,VALID,18,VALID,0.382086,
2003-10-07, 03:19:00,VALID,917.055,VALID,0,VALID,100,VALID,-0.0169808,VALID,19.4125,VALID,18,VALID,0.367369,
2003-10-07, 03:20:00,VALID,917.051,VALID,0,VALID,100,VALID,-0.0509425,VALID,19.415,VALID,17,VALID,0.562318,
2003-10-07, 03:21:00,VALID,917.05,VALID,0,VALID,100,VALID,-0.0169808,VALID,19.4289,VALID,17,VALID,0.551417,
2003-10-07, 03:22:01,VALID,917.036,VALID,0,VALID,100,VALID,-0.0169808,VALID,19.4185,VALID,17,VALID,0.473722,
2003-10-07, 03:23:00,VALID,917.043,VALID,0,VALID,100,VALID,-0.0339617,VALID,19.4217,VALID,17,VALID,0.326637,
2003-10-07, 03:24:00,VALID,917.023,VALID,0,VALID,100,VALID,-0.0509425,VALID,19.4324,VALID,17,VALID,0.294727,
2003-10-07, 03:25:00,VALID,917,VALID,0,VALID,100,VALID,-0.0679233,VALID,19.4257,VALID,17,VALID,0.513207,
2003-10-07, 03:26:00,VALID,917.004,VALID,0,VALID,100,VALID,-0.0849042,VALID,19.4257,VALID,17,VALID,0.491097,
2003-10-07, 03:27:00,VALID,917,VALID,0,VALID,100,VALID,-0.0509425,VALID,19.455,VALID,17,VALID,0.451637,
2003-10-07, 03:28:00,VALID,916.989,VALID,0,VALID,100,VALID,-0.0169808,VALID,19.4573,VALID,17,VALID,0.391715,
2003-10-07, 03:29:00,VALID,916.991,VALID,0,VALID,100,VALID,-0.0169808,VALID,19.4707,VALID,17,VALID,0.274609,
2003-10-07, 03:30:00,VALID,917.007,VALID,0,VALID,100,VALID,-0.0169808,VALID,19.4674,VALID,17,VALID,0.386347,
2003-10-07, 03:31:01,VALID,916.989,VALID,0,VALID,100,VALID,-0.0169808,VALID,19.4478,VALID,20,VALID,0.427689,
2003-10-07, 03:32:00,VALID,916.996,VALID,0,VALID,100,VALID,-0.0169808,VALID,19.4409,VALID,20,VALID,0.00694444,
2003-10-07, 03:33:00,VALID,916.972,VALID,0,VALID,100,VALID,0.0169808,VALID,19.4473,VALID,20,VALID,0,
2003-10-07, 03:34:01,VALID,916.954,VALID,0,VALID,100,VALID,0.101885,VALID,19.4558,VALID,20,VALID,0,
2003-10-07, 03:35:00,VALID,916.943,VALID,0,VALID,100,VALID,0.101885,VALID,19.4583,VALID,19,VALID,0.327195,
2003-10-07, 03:36:00,VALID,916.918,VALID,0,VALID,100,VALID,0.101885,VALID,19.4456,VALID,22,VALID,1.21911,
2003-10-07, 03:37:00,VALID,916.891,VALID,0,VALID,100,VALID,0.101885,VALID,19.3915,VALID,8,VALID,0.59096,
2003-10-07, 03:38:00,VALID,916.877,VALID,0,VALID,100,VALID,0.118866,VALID,19.3492,VALID,354,VALID,0.118096,
2003-10-07, 03:39:00,VALID,916.866,VALID,0,VALID,100,VALID,0.101885,VALID,19.3333,VALID,354,VALID,0,
2003-10-07, 03:40:00,VALID,916.861,VALID,0,VALID,100,VALID,0.118866,VALID,19.3358,VALID,13,VALID,0.349144,
2003-10-07, 03:41:00,VALID,916.853,VALID,0,VALID,100,VALID,0.101885,VALID,19.3656,VALID,27,VALID,0.20206,
2003-10-07, 03:42:00,VALID,916.853,VALID,0,VALID,100,VALID,0.101885,VALID,19.3753,VALID,27,VALID,0.0870536,
2003-10-07, 03:43:01,VALID,916.855,VALID,0,VALID,100,VALID,0.101885,VALID,19.349,VALID,27,VALID,0.198331,
2003-10-07, 03:44:00,VALID,916.867,VALID,0,VALID,100,VALID,0.0849042,VALID,19.3363,VALID,27,VALID,0.326308,
2003-10-07, 03:45:00,VALID,916.873,VALID,0,VALID,100,VALID,0.101885,VALID,19.3336,VALID,27,VALID,0.51726,
2003-10-07, 03:46:00,VALID,916.874,VALID,0,VALID,100,VALID,0.101885,VALID,19.3271,VALID,14,VALID,0.673363,